Flag for U.S.A. Weather past 2 weeks in Provincetown, Massachusetts, U.S.A.

Now
57 °F

Clear.


Feels Like: 57 °F
Forecast: 66 / 79 °F
Wind: No wind

Location: Provincetown Weather Reporting Station

Current Time: Aug 29, 2015 at 6:21:35 AM

Latest Report: Aug 29, 2015 at 5:55 AM


Visibility: 10 mi

Pressure: 30.17 "Hg

Humidity: 82%

Dew point: 52 °F

Location of ProvincetownLocation

Historic Weather in Provincetown — Graph

°F

Provincetown temperature yesterday

Maximum temperature yesterday: 73 °F (at 4:55 PM)
Minimum temperature yesterday: 64 °F (at 5:35 AM)
Average temperature yesterday: 69 °F

Past Weeks' High & Low Weather Summary

 TemperatureHumidityPressure
High88 °F (Aug 17, 12:55 PM)94% (Aug 23, 1:15 PM)30.17 "Hg (Aug 23, 1:15 PM)
Low57 °F (Aug 14, 5:55 AM)37% (Aug 14, 1:35 PM)29.86 "Hg (Aug 26, 2:55 AM)
Average73 °F72%30.03 "Hg
* Reported Aug 14 4:15 AM — Aug 29 4:55 AM, Provincetown, Weather by CustomWeather, © 2015

Note: Actual official high and low records may vary slightly from our data, if they occured in-between our weather recording intervals... More about our weather records

Advertising

Provincetown weather history for previous 24 hours

 ConditionsComfort  
Time TempWeatherWind HumidityBarometerVisibility
4:55 AM
Sat, Aug 29
59 °FClear.3 mph77%30.15 "Hg10 mi
3:35 AM61 °FClear.No wind77%30.16 "Hg10 mi
3:15 AM63 °FClear.No wind73%30.16 "Hg10 mi
2:55 AM63 °FClear.5 mph77%30.17 "Hg10 mi
1:55 AM63 °FClear.3 mph77%30.16 "Hg10 mi
1:35 AM64 °FClear.6 mph73%30.17 "Hg10 mi
1:15 AM64 °FClear.5 mph73%30.17 "Hg10 mi
12:55 AM64 °FClear.6 mph78%30.17 "Hg10 mi
11:55 PM
Fri, Aug 28
66 °FPassing clouds.7 mph73%30.17 "Hg10 mi
11:15 PM68 °FPassing clouds.8 mph69%30.17 "Hg10 mi
10:55 PM66 °FPassing clouds.7 mph73%30.17 "Hg10 mi
10:35 PM68 °FClear.7 mph69%30.17 "Hg10 mi
10:15 PM66 °FClear.8 mph73%30.16 "Hg10 mi
9:55 PM68 °FClear.7 mph69%30.16 "Hg10 mi
9:35 PM66 °FClear.6 mph78%30.16 "Hg10 mi
9:15 PM68 °FClear.5 mph69%30.16 "Hg10 mi
8:55 PM66 °FClear.7 mph78%30.15 "Hg10 mi
8:35 PM66 °FClear.6 mph73%30.15 "Hg10 mi
8:15 PM68 °FSunny.6 mph73%30.15 "Hg10 mi
7:55 PM66 °FSunny.5 mph73%30.14 "Hg10 mi
7:35 PM66 °FSunny.5 mph68%30.14 "Hg10 mi
7:15 PM70 °FSunny.3 mph60%30.13 "Hg10 mi
6:55 PM70 °FSunny.3 mph64%30.13 "Hg10 mi
6:35 PM72 °FSunny.5 mph61%30.13 "Hg10 mi
5:55 PM73 °FSunny.5 mph57%30.12 "Hg10 mi
5:35 PM73 °FSunny.No wind53%30.12 "Hg10 mi
5:15 PM73 °FSunny.5 mph53%30.12 "Hg10 mi
4:55 PM73 °FSunny.5 mph57%30.12 "Hg10 mi
4:35 PM72 °FSunny.6 mph65%30.13 "Hg10 mi
4:15 PM72 °FSunny.6 mph65%30.13 "Hg10 mi
3:55 PM72 °FSunny.6 mph65%30.13 "Hg10 mi
3:35 PM72 °FSunny.7 mph69%30.13 "Hg10 mi
3:15 PM72 °FSunny.5 mph61%30.14 "Hg10 mi
2:55 PM72 °FSunny.6 mph65%30.14 "Hg10 mi
2:35 PM72 °FSunny.7 mph65%30.14 "Hg10 mi
2:15 PM72 °FSunny.6 mph65%30.15 "Hg10 mi
1:55 PM72 °FSunny.7 mph61%30.15 "Hg10 mi
1:35 PM72 °FSunny.8 mph65%30.15 "Hg10 mi
1:15 PM72 °FSunny.6 mph65%30.15 "Hg10 mi
12:55 PM72 °FSunny.7 mph65%30.15 "Hg10 mi
12:35 PM72 °FSunny.7 mph65%30.16 "Hg10 mi
12:15 PM72 °FSunny.7 mph65%30.16 "Hg10 mi
11:55 AM72 °FSunny.7 mph69%30.16 "Hg10 mi
11:35 AM72 °FSunny.8 mph65%30.16 "Hg10 mi
11:15 AM72 °FSunny.8 mph65%30.16 "Hg10 mi
10:55 AM70 °FSunny.7 mph69%30.16 "Hg10 mi
10:35 AM70 °FSunny.8 mph69%30.16 "Hg10 mi
10:15 AM70 °FSunny.8 mph69%30.15 "Hg10 mi
9:55 AM70 °FSunny.8 mph69%30.15 "Hg10 mi
9:35 AM70 °FSunny.7 mph69%30.14 "Hg10 mi
9:15 AM70 °FSunny.9 mph64%30.14 "Hg10 mi
8:55 AM70 °FSunny.9 mph64%30.14 "Hg10 mi
8:35 AM68 °FSunny.8 mph69%30.14 "Hg10 mi
8:15 AM68 °FSunny.7 mph69%30.13 "Hg10 mi
7:55 AM66 °FSunny.6 mph73%30.13 "Hg10 mi
7:35 AM66 °FSunny.6 mph73%30.13 "Hg10 mi
7:15 AM66 °FSunny.6 mph73%30.13 "Hg10 mi
6:55 AM66 °FClear.7 mph68%30.12 "Hg10 mi
6:35 AM64 °FClear.6 mph73%30.11 "Hg10 mi
6:15 AM64 °FClear.8 mph73%30.10 "Hg10 mi
Weather by CustomWeather, © 2015

See weather overviewHow to use our weather pages